Weather History for Waskish, MN

Change the Weather History Date:

Monday, April 14, 2014

  Actual Average (KBDE) Record (KBDE)
Temperature  
Mean Temperature 21 °F -  
Max Temperature 28 °F 52 °F 76 °F (1942)
Min Temperature 14 °F 29 °F 2 °F (1950)
Degree Days  
Heating Degree Days 44    
Moisture  
Dew Point 9 °F    
Average Humidity 61    
Maximum Humidity 79    
Minimum Humidity 43    
Precipitation  
Precipitation 0.00 in - - ()
Sea Level Pressure  
Sea Level Pressure 30.12 in    
Wind  
Wind Speed 8 mph (NW)    
Max Wind Speed 16 mph    
Max Gust Speed 23 mph    
Visibility 10 miles    
Events Snow    
Averages and records for this station are not official NWS values.
T = Trace of Precipitation, MM = Missing Value Source: NWS Daily Summary

Daily Weather History Graph

Daily Weather History Graph

Search for Another Location

Airport:

Trip Planner

Search our weather history database for the weather conditions in past years. The results will help you decide how hot, cold, wet, or windy it might be!

Date:

Astronomy

Apr. 14, 2014 Rise Set
Actual Time 6:30 AM CDT 8:07 PM CDT
Civil Twilight 5:57 AM CDT 8:40 PM CDT
Nautical Twilight 5:17 AM CDT 9:20 PM CDT
Astronomical Twilight 4:34 AM CDT 10:03 PM CDT
Moon 7:46 PM CDT (4/14) 6:06 AM CDT (4/14)
Length of Visible Light 14h 42m
Length of Day
13h 37m
Full, 100% of the Moon is Illuminated
Apr 14
Full
Apr 15
Full
Apr 22
Last Quarter
Apr 29
New
May 6
First Quarter

Hourly Weather History & Observations

Time (CDT) Temp. Windchill Dew Point Humidity Pressure Visibility Wind Dir Wind Speed Gust Speed Precip Events Conditions
12:10 AM 21.2 °F 12.6 °F 12.2 °F 68% 30.13 in 10.0 mi NNW 6.9 mph - N/A   Clear
12:29 AM 21.2 °F 13.6 °F 12.2 °F 68% 30.14 in 10.0 mi NNW 5.8 mph - N/A   Clear
12:50 AM 21.2 °F 10.9 °F 12.2 °F 68% 30.14 in 10.0 mi NNW 9.2 mph - N/A   Clear
1:10 AM 21.2 °F 13.6 °F 12.2 °F 68% 30.14 in 10.0 mi NW 5.8 mph - N/A   Clear
1:29 AM 19.4 °F 10.4 °F 12.2 °F 74% 30.14 in 10.0 mi NW 6.9 mph - N/A   Clear
1:50 AM 19.4 °F 11.5 °F 12.2 °F 74% 30.13 in 10.0 mi NNW 5.8 mph - N/A   Clear
2:10 AM 19.4 °F 12.8 °F 12.2 °F 74% 30.13 in 10.0 mi NNW 4.6 mph - N/A   Clear
2:29 AM 19.4 °F 12.8 °F 12.2 °F 74% 30.13 in 10.0 mi NNW 4.6 mph - N/A   Clear
2:50 AM 19.4 °F 11.5 °F 12.2 °F 74% 30.12 in 10.0 mi NW 5.8 mph - N/A   Clear
3:10 AM 17.6 °F 9.3 °F 12.2 °F 79% 30.12 in 10.0 mi NW 5.8 mph - N/A   Clear
3:29 AM 17.6 °F 10.7 °F 12.2 °F 79% 30.12 in 10.0 mi NW 4.6 mph - N/A   Clear
3:50 AM 17.6 °F 8.2 °F 12.2 °F 79% 30.11 in 10.0 mi NW 6.9 mph - N/A   Clear
4:10 AM 17.6 °F 9.3 °F 10.4 °F 73% 30.11 in 10.0 mi NW 5.8 mph - N/A   Clear
4:29 AM 17.6 °F 9.3 °F 10.4 °F 73% 30.10 in 10.0 mi NW 5.8 mph - N/A   Clear
4:50 AM 17.6 °F 8.2 °F 10.4 °F 73% 30.10 in 10.0 mi NNW 6.9 mph - N/A   Clear
5:10 AM 15.8 °F 7.2 °F 8.6 °F 73% 30.10 in 10.0 mi NW 5.8 mph - N/A   Clear
5:29 AM 15.8 °F 7.2 °F 8.6 °F 73% 30.09 in 10.0 mi NW 5.8 mph - N/A   Clear
5:50 AM 15.8 °F 5.1 °F 8.6 °F 73% 30.10 in 10.0 mi NW 8.1 mph - N/A   Clear
6:10 AM 15.8 °F 6.1 °F 8.6 °F 73% 30.10 in 10.0 mi NW 6.9 mph - N/A   Clear
6:29 AM 15.8 °F 6.1 °F 8.6 °F 73% 30.10 in 10.0 mi NW 6.9 mph - N/A   Clear
6:50 AM 15.8 °F 5.1 °F 8.6 °F 73% 30.11 in 10.0 mi NW 8.1 mph - N/A   Clear
7:10 AM 15.8 °F 6.1 °F 8.6 °F 73% 30.11 in 10.0 mi NW 6.9 mph - N/A   Clear
7:29 AM 15.8 °F 5.1 °F 8.6 °F 73% 30.12 in 10.0 mi NW 8.1 mph - N/A   Clear
7:50 AM 17.6 °F 7.3 °F 8.6 °F 68% 30.13 in 10.0 mi NW 8.1 mph - N/A   Clear
8:10 AM 17.6 °F 5.7 °F 8.6 °F 68% 30.13 in 10.0 mi NW 10.4 mph - N/A   Clear
8:29 AM 19.4 °F 10.4 °F 10.4 °F 68% 30.13 in 10.0 mi NW 6.9 mph - N/A   Clear
8:50 AM 21.2 °F 10.9 °F 10.4 °F 63% 30.14 in 10.0 mi NW 9.2 mph - N/A   Clear
9:09 AM 21.2 °F 11.7 °F 10.4 °F 63% 30.14 in 10.0 mi WNW 8.1 mph - N/A   Clear
9:29 AM 24.8 °F 16.9 °F 12.2 °F 59% 30.14 in 10.0 mi NW 6.9 mph - N/A   Clear
9:50 AM 24.8 °F 15.3 °F 10.4 °F 54% 30.14 in 10.0 mi NW 9.2 mph - N/A   Scattered Clouds
10:09 AM 24.8 °F 13.4 °F 8.6 °F 50% 30.14 in 10.0 mi NNW 12.7 mph 18.4 mph N/A   Scattered Clouds
10:29 AM 24.8 °F 15.3 °F 8.6 °F 50% 30.15 in 10.0 mi NW 9.2 mph 16.1 mph N/A   Mostly Cloudy
10:50 AM 26.6 °F 17.5 °F 8.6 °F 47% 30.14 in 10.0 mi NNW 9.2 mph 19.6 mph N/A   Scattered Clouds
11:09 AM 26.6 °F 16.2 °F 6.8 °F 43% 30.14 in 10.0 mi NW 11.5 mph 17.3 mph N/A   Scattered Clouds
11:30 AM 26.6 °F 16.2 °F 6.8 °F 43% 30.13 in 10.0 mi NNW 11.5 mph 16.1 mph N/A   Mostly Cloudy
11:50 AM 26.6 °F 16.8 °F 8.6 °F 47% 30.13 in 10.0 mi WNW 10.4 mph - N/A   Mostly Cloudy
12:09 PM 26.6 °F 19.1 °F 8.6 °F 47% 30.13 in 10.0 mi WNW 6.9 mph 18.4 mph N/A   Mostly Cloudy
12:30 PM 26.6 °F 16.8 °F 8.6 °F 47% 30.12 in 10.0 mi WNW 10.4 mph 17.3 mph N/A   Mostly Cloudy
12:50 PM 26.6 °F 15.7 °F 6.8 °F 43% 30.11 in 10.0 mi WNW 12.7 mph 17.3 mph N/A   Scattered Clouds
1:09 PM 26.6 °F 18.2 °F 6.8 °F 43% 30.11 in 10.0 mi WNW 8.1 mph 18.4 mph N/A   Mostly Cloudy
1:30 PM 26.6 °F 16.8 °F 8.6 °F 47% 30.11 in 10.0 mi WNW 10.4 mph 16.1 mph N/A   Mostly Cloudy
1:50 PM 28.4 °F 18.5 °F 10.4 °F 47% 30.11 in 10.0 mi WNW 11.5 mph 18.4 mph N/A   Mostly Cloudy
2:09 PM 26.6 °F 15.2 °F 8.6 °F 47% 30.11 in 10.0 mi NW 13.8 mph 20.7 mph N/A   Mostly Cloudy
2:30 PM 28.4 °F 18.5 °F 10.4 °F 47% 30.11 in 10.0 mi WNW 11.5 mph - N/A   Mostly Cloudy
2:50 PM 24.8 °F 17.9 °F 10.4 °F 54% 30.11 in 10.0 mi NW 5.8 mph - N/A   Mostly Cloudy
3:09 PM 24.8 °F 13.4 °F 12.2 °F 59% 30.11 in 10.0 mi NW 12.7 mph 21.9 mph N/A   Overcast
3:30 PM 26.6 °F 14.7 °F 14.0 °F 59% 30.10 in 10.0 mi WNW 15.0 mph 21.9 mph N/A   Mostly Cloudy
3:50 PM 26.6 °F 16.2 °F 12.2 °F 55% 30.10 in 7.0 mi NW 11.5 mph - N/A Snow Light Snow
4:09 PM 26.6 °F 14.3 °F 10.4 °F 51% 30.10 in 10.0 mi NW 16.1 mph 23.0 mph N/A   Overcast
4:30 PM 26.6 °F 15.7 °F 12.2 °F 55% 30.10 in 10.0 mi West 12.7 mph 18.4 mph N/A   Scattered Clouds
4:50 PM 24.8 °F 15.3 °F 14.0 °F 64% 30.10 in 10.0 mi NW 9.2 mph - N/A   Mostly Cloudy
5:09 PM 24.8 °F 14.6 °F 10.4 °F 54% 30.09 in 10.0 mi WNW 10.4 mph 19.6 mph N/A   Mostly Cloudy
5:30 PM 24.8 °F 14.6 °F 8.6 °F 50% 30.09 in 10.0 mi NW 10.4 mph 20.7 mph N/A   Mostly Cloudy
5:50 PM 24.8 °F 13.4 °F 8.6 °F 50% 30.09 in 10.0 mi WNW 12.7 mph 19.6 mph N/A   Mostly Cloudy
6:09 PM 24.8 °F 12.9 °F 8.6 °F 50% 30.10 in 10.0 mi WNW 13.8 mph 17.3 mph N/A   Scattered Clouds
6:30 PM 23.0 °F 11.7 °F 6.8 °F 50% 30.10 in 10.0 mi WNW 11.5 mph 20.7 mph N/A   Scattered Clouds
6:50 PM 23.0 °F 11.1 °F 6.8 °F 50% 30.10 in 10.0 mi WNW 12.7 mph - N/A   Scattered Clouds
7:09 PM 23.0 °F 11.7 °F 8.6 °F 54% 30.10 in 10.0 mi NNW 11.5 mph 18.4 mph N/A   Mostly Cloudy
7:30 PM 23.0 °F 13.1 °F 8.6 °F 54% 30.10 in 10.0 mi NW 9.2 mph - N/A   Overcast
7:50 PM 21.2 °F 10.9 °F 6.8 °F 54% 30.11 in 10.0 mi NNW 9.2 mph - N/A   Mostly Cloudy
8:09 PM 21.2 °F 11.7 °F 6.8 °F 54% 30.11 in 10.0 mi NNW 8.1 mph - N/A   Mostly Cloudy
8:30 PM 19.4 °F 8.6 °F 6.8 °F 58% 30.12 in 10.0 mi NW 9.2 mph - N/A   Scattered Clouds
8:50 PM 19.4 °F 9.5 °F 6.8 °F 58% 30.13 in 10.0 mi NW 8.1 mph - N/A   Clear
9:09 PM 17.6 °F 5.7 °F 6.8 °F 63% 30.13 in 10.0 mi NW 10.4 mph - N/A   Clear
9:30 PM 17.6 °F 6.4 °F 6.8 °F 63% 30.14 in 10.0 mi NW 9.2 mph - N/A   Clear
9:50 PM 17.6 °F 6.4 °F 5.0 °F 58% 30.14 in 10.0 mi NW 9.2 mph - N/A   Clear
10:09 PM 17.6 °F 9.3 °F 6.8 °F 63% 30.14 in 10.0 mi NW 5.8 mph - N/A   Clear
10:30 PM 15.8 °F 6.1 °F 5.0 °F 62% 30.14 in 10.0 mi NW 6.9 mph - N/A   Clear
10:50 PM 15.8 °F 7.2 °F 3.2 °F 58% 30.14 in 10.0 mi NW 5.8 mph - N/A   Clear
11:09 PM 15.8 °F 8.6 °F 5.0 °F 62% 30.14 in 10.0 mi NW 4.6 mph - N/A   Clear
11:30 PM 14.0 °F 5.1 °F 5.0 °F 67% 30.14 in 10.0 mi WNW 5.8 mph - N/A   Clear
11:49 PM 14.0 °F 2.9 °F 5.0 °F 67% 30.15 in 10.0 mi NW 8.1 mph - N/A   Clear